Weather in Birjand

Iran     32°52′00″N   59°13′16″E
temp.,
°C
wind,
m/s
gust,
m/s
humid.,
%
clouds,
%
prec.,
mm/h
press.,
hPa
HPBL,
m
19 april, mon
mon1901:30+15e223073 0.0 101612
04:30+13nne113447 0.0 101510
07:30+15e10279 0.0 101579
10:30+19nnw33181 0.0 10151826
13:30+21nnw761285 0.0 10123208
16:30+21n7814100 0.0 10113785
19:30+19n672166 0.0 1013912
22:30+16n48264 0.0 1014278
20 april, tue
tue2001:30+14n33310 0.0 101445
04:30+13nne33360 0.0 101417
07:30+14nne273631 0.0 1016599
10:30+19n811200 0.0 10151947
13:30+21nnw810180 0.0 10142397
16:30+22n89160 0.0 10122523
19:30+19nne682137 0.0 1013320
22:30+16ne22274 0.0 101519
21 april, wed
wed2101:30+14nne11305 0.0 101511
04:30+13ne11335 0.0 101511
07:30+16ne1127100 0.0 101669
10:30+20nnw472048 0.0 10161692
13:30+23nnw7717100 0.0 10142563
16:30+23nnw67163 0.0 10132919
19:30+21n69215 0.0 1014279
22:30+18ne222727 0.0 101623
22 april, thu
thu2201:30+16ene22312 0.0 101612
04:30+15ene22325 0.0 101611
07:30+17ne11284 0.0 101880
10:30+22nnw68201 0.0 10172076
13:30+25n77135 0.0 10153153
16:30+25n77135 0.0 10143167
19:30+21ne79215 0.0 1015320
22:30+18ne33305 0.0 101747
23 april, fri
fri2301:30+16ene33345 0.0 101728
04:30+15ene33375 0.0 101720
07:30+17ene23290 0.0 1017131
10:30+22nne451756 0.0 10161410
13:30+25n88135 0.0 10133083
16:30+25n77135 0.0 10122818
19:30+21ne79176 0.0 1013315
22:30+19e331973 0.0 101427